,,,PA_Meas_PMT16A,,PR_Meas_QMR101_102,,RH_Meas_QMH101,,SR_Meas_QMS101,,TA_Meas_QMH101,,GenWind,,GenWind,
date,time,status,PA,status,PR,status,RH,status,SR,status,TA,status,DirAvg,status,SpdAvg,
2011-01-08, 00:00:04,VALID,1007.79,VALID,0,VALID,104,VALID,0.105969,VALID,22.9147,VALID,338,VALID,0,
2011-01-08, 00:01:04,VALID,1007.77,VALID,0,VALID,104,VALID,0,VALID,22.9129,VALID,338,VALID,0,
2011-01-08, 00:02:04,VALID,1007.77,VALID,0,VALID,104,VALID,0.105969,VALID,22.9129,VALID,338,VALID,0,
2011-01-08, 00:03:04,VALID,1007.76,VALID,0,VALID,104,VALID,0.105969,VALID,22.9324,VALID,338,VALID,0,
2011-01-08, 00:04:04,VALID,1007.78,VALID,0,VALID,104,VALID,0.105969,VALID,22.9342,VALID,338,VALID,0,
2011-01-08, 00:05:04,VALID,1007.76,VALID,0,VALID,104,VALID,0.105969,VALID,22.9147,VALID,338,VALID,0,
2011-01-08, 00:06:04,VALID,1007.78,VALID,0,VALID,104,VALID,0.105969,VALID,22.8935,VALID,338,VALID,0,
2011-01-08, 00:07:04,VALID,1007.75,VALID,0,VALID,104,VALID,0,VALID,22.874,VALID,338,VALID,0,
2011-01-08, 00:08:04,VALID,1007.73,VALID,0,VALID,104,VALID,0.105969,VALID,22.8757,VALID,338,VALID,0,
2011-01-08, 00:09:04,VALID,1007.71,VALID,0,VALID,104,VALID,0,VALID,22.8757,VALID,338,VALID,0,
2011-01-08, 00:10:04,VALID,1007.71,VALID,0,VALID,104,VALID,0,VALID,22.8545,VALID,338,VALID,0,
2011-01-08, 00:11:04,VALID,1007.69,VALID,0,VALID,104,VALID,0.105969,VALID,22.8562,VALID,338,VALID,0,
2011-01-08, 00:12:04,VALID,1007.68,VALID,0,VALID,104,VALID,0.105969,VALID,22.8562,VALID,338,VALID,0,
2011-01-08, 00:13:04,VALID,1007.66,VALID,0,VALID,104,VALID,0,VALID,22.835,VALID,338,VALID,0,
2011-01-08, 00:14:04,VALID,1007.66,VALID,0,VALID,104,VALID,0.105969,VALID,22.8155,VALID,338,VALID,0,
2011-01-08, 00:15:04,VALID,1007.64,VALID,0,VALID,104,VALID,0.105969,VALID,22.8173,VALID,338,VALID,0,
2011-01-08, 00:16:04,VALID,1007.64,VALID,0,VALID,104,VALID,0,VALID,22.8173,VALID,338,VALID,0,
2011-01-08, 00:17:04,VALID,1007.64,VALID,0,VALID,104,VALID,0,VALID,22.7978,VALID,338,VALID,0,
2011-01-08, 00:18:04,VALID,1007.65,VALID,0,VALID,104,VALID,0.105969,VALID,22.7978,VALID,338,VALID,0,
2011-01-08, 00:19:04,VALID,1007.61,VALID,0,VALID,104,VALID,0,VALID,22.7978,VALID,338,VALID,0,
2011-01-08, 00:20:04,VALID,1007.62,VALID,0,VALID,104,VALID,0,VALID,22.7783,VALID,338,VALID,0,
2011-01-08, 00:21:04,VALID,1007.59,VALID,0,VALID,104,VALID,0.105969,VALID,22.7588,VALID,338,VALID,0,
2011-01-08, 00:22:04,VALID,1007.58,VALID,0,VALID,104,VALID,0.105969,VALID,22.7394,VALID,338,VALID,0,
2011-01-08, 00:23:04,VALID,1007.54,VALID,0,VALID,104,VALID,0.105969,VALID,22.7588,VALID,338,VALID,0,
2011-01-08, 00:24:04,VALID,1007.52,VALID,0,VALID,104,VALID,0,VALID,22.7588,VALID,338,VALID,0,
2011-01-08, 00:25:04,VALID,1007.48,VALID,0,VALID,104,VALID,0,VALID,22.7376,VALID,338,VALID,0,
2011-01-08, 00:26:04,VALID,1007.43,VALID,0,VALID,104,VALID,0,VALID,22.7588,VALID,338,VALID,0,
2011-01-08, 00:27:04,VALID,1007.38,VALID,0,VALID,104,VALID,0,VALID,22.7394,VALID,338,VALID,0,
2011-01-08, 00:28:04,VALID,1007.39,VALID,0,VALID,104,VALID,0,VALID,22.7182,VALID,338,VALID,0,
2011-01-08, 00:29:04,VALID,1007.4,VALID,0,VALID,104,VALID,0,VALID,22.7394,VALID,338,VALID,0,
2011-01-08, 00:30:04,VALID,1007.37,VALID,0,VALID,104,VALID,0,VALID,22.7394,VALID,338,VALID,0,
2011-01-08, 00:31:04,VALID,1007.37,VALID,0,VALID,104,VALID,0,VALID,22.7182,VALID,338,VALID,0,
2011-01-08, 00:32:04,VALID,1007.37,VALID,0,VALID,104,VALID,0,VALID,22.7182,VALID,338,VALID,0,
2011-01-08, 00:33:04,VALID,1007.39,VALID,0,VALID,104,VALID,0.105969,VALID,22.7182,VALID,338,VALID,0,
2011-01-08, 00:34:04,VALID,1007.39,VALID,0,VALID,104,VALID,0,VALID,22.7182,VALID,338,VALID,0,
2011-01-08, 00:35:04,VALID,1007.38,VALID,0,VALID,104,VALID,0.105969,VALID,22.7199,VALID,338,VALID,0,
2011-01-08, 00:36:04,VALID,1007.38,VALID,0,VALID,104,VALID,0.105969,VALID,22.7182,VALID,338,VALID,0,
2011-01-08, 00:37:04,VALID,1007.38,VALID,0,VALID,104,VALID,0,VALID,22.7376,VALID,338,VALID,0,
2011-01-08, 00:38:04,VALID,1007.37,VALID,0,VALID,104,VALID,0,VALID,22.7182,VALID,338,VALID,0,
2011-01-08, 00:39:04,VALID,1007.38,VALID,0,VALID,104,VALID,0.105969,VALID,22.6987,VALID,338,VALID,0,
2011-01-08, 00:40:04,VALID,1007.38,VALID,0,VALID,104,VALID,0,VALID,22.6987,VALID,338,VALID,0,
2011-01-08, 00:41:04,VALID,1007.37,VALID,0,VALID,104,VALID,0,VALID,22.6987,VALID,338,VALID,0,
2011-01-08, 00:42:04,VALID,1007.34,VALID,0,VALID,104,VALID,0,VALID,22.6987,VALID,338,VALID,0,
2011-01-08, 00:43:04,VALID,1007.32,VALID,0,VALID,104,VALID,0.105969,VALID,22.6987,VALID,338,VALID,0,
2011-01-08, 00:44:04,VALID,1007.28,VALID,0,VALID,104,VALID,0,VALID,22.7004,VALID,338,VALID,0,
2011-01-08, 00:45:04,VALID,1007.3,VALID,0,VALID,104,VALID,0,VALID,22.6987,VALID,338,VALID,0,
2011-01-08, 00:46:04,VALID,1007.29,VALID,0,VALID,104,VALID,0,VALID,22.7199,VALID,338,VALID,0,
2011-01-08, 00:47:04,VALID,1007.3,VALID,0,VALID,104,VALID,0,VALID,22.7182,VALID,338,VALID,0,
2011-01-08, 00:48:04,VALID,1007.26,VALID,0,VALID,104,VALID,0.105969,VALID,22.7182,VALID,338,VALID,0,
2011-01-08, 00:49:04,VALID,1007.24,VALID,0,VALID,104,VALID,0.105969,VALID,22.7394,VALID,338,VALID,0,
2011-01-08, 00:50:04,VALID,1007.23,VALID,0,VALID,104,VALID,0.105969,VALID,22.7182,VALID,338,VALID,0,
2011-01-08, 00:51:04,VALID,1007.19,VALID,0,VALID,104,VALID,0.105969,VALID,22.7376,VALID,338,VALID,0,
2011-01-08, 00:52:04,VALID,1007.18,VALID,0,VALID,104,VALID,0.105969,VALID,22.7182,VALID,338,VALID,0,
2011-01-08, 00:53:04,VALID,1007.16,VALID,0,VALID,104,VALID,0.105969,VALID,22.7394,VALID,338,VALID,0,
2011-01-08, 00:54:04,VALID,1007.14,VALID,0,VALID,104,VALID,0.105969,VALID,22.7182,VALID,338,VALID,0,
2011-01-08, 00:55:04,VALID,1007.12,VALID,0,VALID,104,VALID,0,VALID,22.7394,VALID,338,VALID,0,
2011-01-08, 00:56:04,VALID,1007.11,VALID,0,VALID,104,VALID,0.105969,VALID,22.7182,VALID,338,VALID,0,
2011-01-08, 00:57:04,VALID,1007.07,VALID,0,VALID,104,VALID,0.105969,VALID,22.7182,VALID,338,VALID,0,
2011-01-08, 00:58:04,VALID,1007.07,VALID,0,VALID,104,VALID,0.105969,VALID,22.6987,VALID,338,VALID,0,
2011-01-08, 00:59:04,VALID,1007.07,VALID,0,VALID,104,VALID,0,VALID,22.6987,VALID,338,VALID,0,
2011-01-08, 01:00:04,VALID,1007.07,VALID,0,VALID,104,VALID,0.105969,VALID,22.6987,VALID,338,VALID,0,
2011-01-08, 01:01:04,VALID,1007.09,VALID,0,VALID,104,VALID,0.105969,VALID,22.6987,VALID,338,VALID,0,
2011-01-08, 01:02:04,VALID,1007.1,VALID,0,VALID,104,VALID,0.105969,VALID,22.6987,VALID,338,VALID,0,
2011-01-08, 01:03:04,VALID,1007.09,VALID,0,VALID,104,VALID,0.105969,VALID,22.6792,VALID,338,VALID,0,
2011-01-08, 01:04:04,VALID,1007.1,VALID,0,VALID,104,VALID,0.105969,VALID,22.6792,VALID,338,VALID,0,
2011-01-08, 01:05:04,VALID,1007.09,VALID,0,VALID,104,VALID,0.105969,VALID,22.6792,VALID,338,VALID,0,
2011-01-08, 01:06:04,VALID,1007.12,VALID,0,VALID,104,VALID,0.105969,VALID,22.6792,VALID,338,VALID,0,
2011-01-08, 01:07:04,VALID,1007.08,VALID,0,VALID,103.992,VALID,0,VALID,22.6792,VALID,338,VALID,0,
2011-01-08, 01:08:04,VALID,1007.1,VALID,0,VALID,104,VALID,0.105969,VALID,22.6597,VALID,338,VALID,0,
2011-01-08, 01:09:04,VALID,1007.12,VALID,0,VALID,104,VALID,0.105969,VALID,22.6402,VALID,338,VALID,0,
2011-01-08, 01:10:04,VALID,1007.12,VALID,0,VALID,104,VALID,0.105969,VALID,22.6402,VALID,338,VALID,0,
2011-01-08, 01:11:04,VALID,1007.12,VALID,0,VALID,104,VALID,0.105969,VALID,22.642,VALID,338,VALID,0,
2011-01-08, 01:12:04,VALID,1007.12,VALID,0,VALID,104,VALID,0.105969,VALID,22.6208,VALID,338,VALID,0,
2011-01-08, 01:13:04,VALID,1007.11,VALID,0,VALID,104,VALID,0.105969,VALID,22.6208,VALID,338,VALID,0,
2011-01-08, 01:14:04,VALID,1007.09,VALID,0,VALID,104,VALID,0.105969,VALID,22.6208,VALID,338,VALID,0,
2011-01-08, 01:15:04,VALID,1007.1,VALID,0,VALID,104,VALID,0,VALID,22.6402,VALID,338,VALID,0,
2011-01-08, 01:16:04,VALID,1007.08,VALID,0,VALID,103.992,VALID,0,VALID,22.6597,VALID,338,VALID,0,
2011-01-08, 01:17:04,VALID,1007.07,VALID,0,VALID,103.977,VALID,0.105969,VALID,22.6597,VALID,338,VALID,0,
2011-01-08, 01:18:04,VALID,1007.05,VALID,0,VALID,103.954,VALID,0.105969,VALID,22.6597,VALID,338,VALID,0,
2011-01-08, 01:19:04,VALID,1007.01,VALID,0,VALID,103.977,VALID,0.105969,VALID,22.6809,VALID,338,VALID,0,
2011-01-08, 01:20:04,VALID,1007,VALID,0,VALID,103.977,VALID,0.105969,VALID,22.6614,VALID,338,VALID,0,
2011-01-08, 01:21:04,VALID,1006.96,VALID,0,VALID,104,VALID,0.105969,VALID,22.6402,VALID,338,VALID,0,
2011-01-08, 01:22:04,VALID,1006.95,VALID,0,VALID,103.985,VALID,0.105969,VALID,22.6402,VALID,338,VALID,0,
2011-01-08, 01:23:04,VALID,1006.95,VALID,0,VALID,103.992,VALID,0.105969,VALID,22.642,VALID,338,VALID,0,
2011-01-08, 01:24:04,VALID,1006.93,VALID,0,VALID,103.992,VALID,0.105969,VALID,22.6208,VALID,338,VALID,0,
2011-01-08, 01:25:04,VALID,1006.95,VALID,0,VALID,103.992,VALID,0.105969,VALID,22.6208,VALID,338,VALID,0,
2011-01-08, 01:26:04,VALID,1006.95,VALID,0,VALID,103.992,VALID,0.105969,VALID,22.6013,VALID,338,VALID,0,
2011-01-08, 01:27:04,VALID,1006.96,VALID,0,VALID,103.985,VALID,0.105969,VALID,22.6013,VALID,338,VALID,0,
2011-01-08, 01:28:04,VALID,1006.96,VALID,0,VALID,104,VALID,0.105969,VALID,22.6013,VALID,338,VALID,0,
2011-01-08, 01:29:04,VALID,1006.93,VALID,0,VALID,103.985,VALID,0,VALID,22.603,VALID,338,VALID,0,
2011-01-08, 01:30:04,VALID,1006.93,VALID,0,VALID,103.985,VALID,0,VALID,22.603,VALID,338,VALID,0,
2011-01-08, 01:31:04,VALID,1006.92,VALID,0,VALID,103.992,VALID,0.105969,VALID,22.5835,VALID,338,VALID,0,
2011-01-08, 01:32:04,VALID,1006.92,VALID,0,VALID,104,VALID,0,VALID,22.5623,VALID,338,VALID,0,
2011-01-08, 01:33:04,VALID,1006.88,VALID,0,VALID,104,VALID,0,VALID,22.5429,VALID,338,VALID,0,
2011-01-08, 01:34:04,VALID,1006.86,VALID,0,VALID,103.992,VALID,0,VALID,22.564,VALID,338,VALID,0,
2011-01-08, 01:35:04,VALID,1006.89,VALID,0,VALID,104,VALID,0.105969,VALID,22.5623,VALID,338,VALID,0,
2011-01-08, 01:36:04,VALID,1006.9,VALID,0,VALID,103.977,VALID,0,VALID,22.5835,VALID,338,VALID,0,
2011-01-08, 01:37:04,VALID,1006.92,VALID,0,VALID,103.962,VALID,0.105969,VALID,22.5623,VALID,338,VALID,0,
2011-01-08, 01:38:04,VALID,1006.91,VALID,0,VALID,103.962,VALID,0.105969,VALID,22.6225,VALID,338,VALID,0,
2011-01-08, 01:39:04,VALID,1006.93,VALID,0,VALID,103.939,VALID,0.105969,VALID,22.603,VALID,338,VALID,0,
2011-01-08, 01:40:04,VALID,1006.89,VALID,0,VALID,103.924,VALID,0.105969,VALID,22.6225,VALID,338,VALID,0,
2011-01-08, 01:41:04,VALID,1006.93,VALID,0,VALID,103.931,VALID,0,VALID,22.6225,VALID,338,VALID,0,
2011-01-08, 01:42:04,VALID,1006.9,VALID,0,VALID,103.962,VALID,0,VALID,22.6225,VALID,338,VALID,0,
2011-01-08, 01:43:04,VALID,1006.89,VALID,0,VALID,103.962,VALID,0.105969,VALID,22.603,VALID,338,VALID,0,
2011-01-08, 01:44:04,VALID,1006.88,VALID,0,VALID,103.985,VALID,0,VALID,22.5835,VALID,338,VALID,0,
2011-01-08, 01:45:04,VALID,1006.83,VALID,0,VALID,103.985,VALID,0,VALID,22.5835,VALID,338,VALID,0,
2011-01-08, 01:46:04,VALID,1006.8,VALID,0,VALID,103.985,VALID,0.105969,VALID,22.5429,VALID,338,VALID,0,
2011-01-08, 01:47:04,VALID,1006.79,VALID,0,VALID,104,VALID,0.105969,VALID,22.5234,VALID,338,VALID,0,
2011-01-08, 01:48:04,VALID,1006.81,VALID,0,VALID,104,VALID,0.105969,VALID,22.5251,VALID,338,VALID,0,
2011-01-08, 01:49:04,VALID,1006.8,VALID,0,VALID,103.992,VALID,0.105969,VALID,22.5056,VALID,338,VALID,0.0113281,
2011-01-08, 01:50:04,VALID,1006.79,VALID,0,VALID,103.985,VALID,0.105969,VALID,22.4844,VALID,338,VALID,0.344531,
2011-01-08, 01:51:04,VALID,1006.82,VALID,0,VALID,103.992,VALID,0.105969,VALID,22.465,VALID,338,VALID,0.288281,
2011-01-08, 01:52:04,VALID,1006.85,VALID,0,VALID,103.985,VALID,0.105969,VALID,22.465,VALID,338,VALID,0.309375,
2011-01-08, 01:53:04,VALID,1006.85,VALID,0,VALID,104,VALID,0,VALID,22.4667,VALID,338,VALID,0.346875,
2011-01-08, 01:54:04,VALID,1006.88,VALID,0,VALID,103.992,VALID,0.105969,VALID,22.426,VALID,338,VALID,0.194922,
2011-01-08, 01:55:04,VALID,1006.88,VALID,0,VALID,103.985,VALID,0,VALID,22.4277,VALID,338,VALID,0,
2011-01-08, 01:56:04,VALID,1006.91,VALID,0,VALID,103.985,VALID,0,VALID,22.4684,VALID,338,VALID,0,
2011-01-08, 01:57:04,VALID,1006.91,VALID,0,VALID,103.977,VALID,0,VALID,22.4684,VALID,338,VALID,0,
2011-01-08, 01:58:04,VALID,1006.9,VALID,0,VALID,103.962,VALID,0,VALID,22.4277,VALID,338,VALID,0,
2011-01-08, 01:59:04,VALID,1006.9,VALID,0,VALID,103.954,VALID,0,VALID,22.4489,VALID,338,VALID,0,
2011-01-08, 02:00:04,VALID,1006.86,VALID,0,VALID,103.962,VALID,0,VALID,22.4472,VALID,338,VALID,0,
2011-01-08, 02:01:04,VALID,1006.86,VALID,0,VALID,103.97,VALID,0,VALID,22.4277,VALID,338,VALID,0,
2011-01-08, 02:02:04,VALID,1006.87,VALID,0,VALID,103.992,VALID,0,VALID,22.4277,VALID,338,VALID,0,
2011-01-08, 02:03:04,VALID,1006.86,VALID,0,VALID,103.985,VALID,0,VALID,22.4294,VALID,338,VALID,0,
2011-01-08, 02:04:04,VALID,1006.86,VALID,0,VALID,103.962,VALID,0,VALID,22.4277,VALID,338,VALID,0,
2011-01-08, 02:05:04,VALID,1006.81,VALID,0,VALID,103.931,VALID,0,VALID,22.4277,VALID,338,VALID,0,
2011-01-08, 02:06:04,VALID,1006.81,VALID,0,VALID,103.931,VALID,0,VALID,22.4472,VALID,338,VALID,0,
2011-01-08, 02:07:04,VALID,1006.81,VALID,0,VALID,103.916,VALID,0,VALID,22.4472,VALID,338,VALID,0,
2011-01-08, 02:08:04,VALID,1006.75,VALID,0,VALID,103.931,VALID,0,VALID,22.4489,VALID,338,VALID,0,
2011-01-08, 02:09:04,VALID,1006.79,VALID,0,VALID,103.962,VALID,0,VALID,22.4294,VALID,338,VALID,0,
2011-01-08, 02:10:04,VALID,1006.77,VALID,0,VALID,103.97,VALID,0,VALID,22.4082,VALID,338,VALID,0,
2011-01-08, 02:11:04,VALID,1006.75,VALID,0,VALID,103.962,VALID,0,VALID,22.3887,VALID,338,VALID,0,
2011-01-08, 02:12:04,VALID,1006.75,VALID,0,VALID,103.954,VALID,0,VALID,22.4082,VALID,338,VALID,0,
2011-01-08, 02:13:04,VALID,1006.76,VALID,0,VALID,103.954,VALID,0,VALID,22.4099,VALID,338,VALID,0,
2011-01-08, 02:14:04,VALID,1006.77,VALID,0,VALID,103.954,VALID,0,VALID,22.3887,VALID,338,VALID,0,
2011-01-08, 02:15:04,VALID,1006.8,VALID,0,VALID,103.939,VALID,0,VALID,22.3887,VALID,338,VALID,0,
2011-01-08, 02:16:04,VALID,1006.78,VALID,0,VALID,103.916,VALID,0,VALID,22.3887,VALID,338,VALID,0,
2011-01-08, 02:17:04,VALID,1006.82,VALID,0,VALID,103.901,VALID,0,VALID,22.4294,VALID,338,VALID,0,
2011-01-08, 02:18:04,VALID,1006.83,VALID,0,VALID,103.909,VALID,0,VALID,22.4082,VALID,338,VALID,0,
2011-01-08, 02:19:04,VALID,1006.85,VALID,0,VALID,103.893,VALID,0,VALID,22.4277,VALID,338,VALID,0,
2011-01-08, 02:20:04,VALID,1006.84,VALID,0,VALID,103.901,VALID,0,VALID,22.4082,VALID,338,VALID,0,
2011-01-08, 02:21:04,VALID,1006.79,VALID,0,VALID,103.909,VALID,0,VALID,22.4082,VALID,338,VALID,0,
2011-01-08, 02:22:04,VALID,1006.78,VALID,0,VALID,103.924,VALID,0,VALID,22.4082,VALID,338,VALID,0,
2011-01-08, 02:23:04,VALID,1006.79,VALID,0,VALID,103.924,VALID,0,VALID,22.3887,VALID,338,VALID,0,
2011-01-08, 02:24:04,VALID,1006.79,VALID,0,VALID,103.931,VALID,0,VALID,22.3887,VALID,338,VALID,0,
2011-01-08, 02:25:04,VALID,1006.74,VALID,0,VALID,103.909,VALID,0,VALID,22.387,VALID,338,VALID,0,
2011-01-08, 02:26:04,VALID,1006.77,VALID,0,VALID,103.901,VALID,0,VALID,22.3887,VALID,338,VALID,0,
2011-01-08, 02:27:04,VALID,1006.74,VALID,0,VALID,103.924,VALID,0,VALID,22.3693,VALID,338,VALID,0,
2011-01-08, 02:28:04,VALID,1006.74,VALID,0,VALID,103.931,VALID,0.105969,VALID,22.3693,VALID,338,VALID,0,
2011-01-08, 02:29:04,VALID,1006.73,VALID,0,VALID,103.939,VALID,0,VALID,22.3498,VALID,338,VALID,0,
2011-01-08, 02:30:04,VALID,1006.72,VALID,0,VALID,103.939,VALID,0.105969,VALID,22.3303,VALID,338,VALID,0,
2011-01-08, 02:31:04,VALID,1006.73,VALID,0,VALID,103.931,VALID,0,VALID,22.3303,VALID,338,VALID,0,
2011-01-08, 02:32:04,VALID,1006.71,VALID,0,VALID,103.931,VALID,0.105969,VALID,22.2914,VALID,338,VALID,0,
2011-01-08, 02:33:04,VALID,1006.71,VALID,0,VALID,103.954,VALID,0.105969,VALID,22.2702,VALID,338,VALID,0,
2011-01-08, 02:34:04,VALID,1006.71,VALID,0,VALID,103.977,VALID,0,VALID,22.2719,VALID,338,VALID,0,
2011-01-08, 02:35:04,VALID,1006.74,VALID,0,VALID,103.977,VALID,0,VALID,22.2524,VALID,338,VALID,0,
2011-01-08, 02:36:04,VALID,1006.75,VALID,0,VALID,103.97,VALID,0.105969,VALID,22.2524,VALID,338,VALID,0,
2011-01-08, 02:37:04,VALID,1006.77,VALID,0,VALID,103.939,VALID,0,VALID,22.2329,VALID,338,VALID,0,
2011-01-08, 02:38:04,VALID,1006.75,VALID,0,VALID,103.931,VALID,0,VALID,22.2329,VALID,338,VALID,0,
2011-01-08, 02:39:04,VALID,1006.76,VALID,0,VALID,103.947,VALID,0.105969,VALID,22.2118,VALID,338,VALID,0,
2011-01-08, 02:40:04,VALID,1006.77,VALID,0,VALID,103.863,VALID,0.105969,VALID,22.2507,VALID,338,VALID,0,
2011-01-08, 02:41:04,VALID,1006.82,VALID,0,VALID,103.832,VALID,0.105969,VALID,22.3108,VALID,338,VALID,0,
2011-01-08, 02:42:04,VALID,1006.81,VALID,0,VALID,103.794,VALID,0.105969,VALID,22.3303,VALID,338,VALID,0,
2011-01-08, 02:43:04,VALID,1006.84,VALID,0,VALID,103.809,VALID,0,VALID,22.3481,VALID,338,VALID,0,
2011-01-08, 02:44:04,VALID,1006.84,VALID,0,VALID,103.787,VALID,0,VALID,22.3887,VALID,338,VALID,0,
2011-01-08, 02:45:04,VALID,1006.83,VALID,0,VALID,103.809,VALID,0.105969,VALID,22.4082,VALID,338,VALID,0,
2011-01-08, 02:46:04,VALID,1006.81,VALID,0,VALID,103.802,VALID,0.105969,VALID,22.4277,VALID,338,VALID,0,
2011-01-08, 02:47:04,VALID,1006.8,VALID,0,VALID,103.794,VALID,0.105969,VALID,22.4277,VALID,338,VALID,0,
2011-01-08, 02:48:04,VALID,1006.77,VALID,0,VALID,103.817,VALID,0.105969,VALID,22.4065,VALID,338,VALID,0,
2011-01-08, 02:49:04,VALID,1006.77,VALID,0,VALID,103.817,VALID,0,VALID,22.426,VALID,338,VALID,0.273438,
2011-01-08, 02:50:04,VALID,1006.77,VALID,0,VALID,103.809,VALID,0,VALID,22.4277,VALID,338,VALID,0.265625,
2011-01-08, 02:51:04,VALID,1006.78,VALID,0,VALID,103.787,VALID,0,VALID,22.4472,VALID,338,VALID,0.310156,
2011-01-08, 02:52:04,VALID,1006.76,VALID,0,VALID,103.794,VALID,0.105969,VALID,22.4065,VALID,338,VALID,0.00585938,
2011-01-08, 02:53:04,VALID,1006.75,VALID,0,VALID,103.787,VALID,0.105969,VALID,22.426,VALID,338,VALID,0.0328125,
2011-01-08, 02:54:04,VALID,1006.72,VALID,0,VALID,103.825,VALID,0.105969,VALID,22.4472,VALID,338,VALID,0,
2011-01-08, 02:55:04,VALID,1006.75,VALID,0,VALID,103.817,VALID,0.105969,VALID,22.4065,VALID,338,VALID,0,
2011-01-08, 02:56:04,VALID,1006.71,VALID,0,VALID,103.802,VALID,0.105969,VALID,22.4472,VALID,338,VALID,0,
2011-01-08, 02:57:04,VALID,1006.7,VALID,0,VALID,103.809,VALID,0,VALID,22.4277,VALID,338,VALID,0,
2011-01-08, 02:58:04,VALID,1006.69,VALID,0,VALID,103.809,VALID,0.105969,VALID,22.426,VALID,338,VALID,0,
2011-01-08, 02:59:04,VALID,1006.68,VALID,0,VALID,103.802,VALID,0.105969,VALID,22.4277,VALID,338,VALID,0,
2011-01-08, 03:00:04,VALID,1006.65,VALID,0,VALID,103.794,VALID,0,VALID,22.4065,VALID,338,VALID,0,
2011-01-08, 03:01:04,VALID,1006.66,VALID,0,VALID,103.809,VALID,0.105969,VALID,22.4277,VALID,338,VALID,0,
2011-01-08, 03:02:04,VALID,1006.67,VALID,0,VALID,103.802,VALID,0,VALID,22.4065,VALID,338,VALID,0,
2011-01-08, 03:03:04,VALID,1006.63,VALID,0,VALID,103.809,VALID,0,VALID,22.4277,VALID,338,VALID,0,
2011-01-08, 03:04:04,VALID,1006.66,VALID,0,VALID,103.817,VALID,0.105969,VALID,22.4277,VALID,338,VALID,0.00351562,
2011-01-08, 03:05:04,VALID,1006.65,VALID,0,VALID,103.802,VALID,0,VALID,22.4277,VALID,338,VALID,0,
2011-01-08, 03:06:04,VALID,1006.68,VALID,0,VALID,103.779,VALID,0,VALID,22.4277,VALID,338,VALID,0,
2011-01-08, 03:07:04,VALID,1006.68,VALID,0,VALID,103.779,VALID,0.105969,VALID,22.4277,VALID,338,VALID,0.325391,
2011-01-08, 03:08:04,VALID,1006.65,VALID,0,VALID,103.764,VALID,0.105969,VALID,22.4065,VALID,338,VALID,0.520312,
2011-01-08, 03:09:04,VALID,1006.69,VALID,0,VALID,103.771,VALID,0.105969,VALID,22.4065,VALID,31,VALID,0.628516,
2011-01-08, 03:10:04,VALID,1006.71,VALID,0,VALID,103.756,VALID,0.105969,VALID,22.426,VALID,60,VALID,0.380078,
2011-01-08, 03:11:04,VALID,1006.72,VALID,0,VALID,103.779,VALID,0.105969,VALID,22.4472,VALID,60,VALID,0.497266,
2011-01-08, 03:12:04,VALID,1006.67,VALID,0,VALID,103.771,VALID,0,VALID,22.4277,VALID,60,VALID,0.502734,
2011-01-08, 03:13:04,VALID,1006.72,VALID,0,VALID,103.764,VALID,0.105969,VALID,22.4472,VALID,60,VALID,0.459375,
2011-01-08, 03:14:04,VALID,1006.72,VALID,0,VALID,103.802,VALID,0.105969,VALID,22.4065,VALID,60,VALID,0.0289063,
2011-01-08, 03:15:04,VALID,1006.71,VALID,0,VALID,103.779,VALID,0.105969,VALID,22.387,VALID,60,VALID,0.365625,
2011-01-08, 03:16:04,VALID,1006.7,VALID,0,VALID,103.779,VALID,0.105969,VALID,22.387,VALID,60,VALID,0.636719,
2011-01-08, 03:17:04,VALID,1006.69,VALID,0,VALID,103.794,VALID,0,VALID,22.3676,VALID,60,VALID,0.312891,
2011-01-08, 03:18:04,VALID,1006.71,VALID,0,VALID,103.802,VALID,0,VALID,22.3676,VALID,60,VALID,0.00273437,
2011-01-08, 03:19:04,VALID,1006.69,VALID,0,VALID,103.809,VALID,0,VALID,22.3498,VALID,60,VALID,0.189453,
2011-01-08, 03:20:04,VALID,1006.68,VALID,0,VALID,103.809,VALID,0,VALID,22.3498,VALID,60,VALID,0,
2011-01-08, 03:21:04,VALID,1006.66,VALID,0,VALID,103.802,VALID,0.105969,VALID,22.3303,VALID,60,VALID,0.267188,
2011-01-08, 03:22:04,VALID,1006.67,VALID,0,VALID,103.802,VALID,0,VALID,22.3303,VALID,60,VALID,0.335156,
2011-01-08, 03:23:04,VALID,1006.66,VALID,0,VALID,103.809,VALID,0,VALID,22.3303,VALID,60,VALID,0.234766,
2011-01-08, 03:24:04,VALID,1006.67,VALID,0,VALID,103.817,VALID,0.105969,VALID,22.2897,VALID,60,VALID,0.201172,
2011-01-08, 03:25:04,VALID,1006.69,VALID,0,VALID,103.817,VALID,0.105969,VALID,22.2897,VALID,60,VALID,0.0316406,
2011-01-08, 03:26:04,VALID,1006.72,VALID,0,VALID,103.794,VALID,0,VALID,22.3108,VALID,60,VALID,0,
2011-01-08, 03:27:04,VALID,1006.73,VALID,0,VALID,103.825,VALID,0,VALID,22.2914,VALID,60,VALID,0,
2011-01-08, 03:28:04,VALID,1006.74,VALID,0,VALID,103.809,VALID,0,VALID,22.2507,VALID,60,VALID,0,
2011-01-08, 03:29:04,VALID,1006.75,VALID,0,VALID,103.832,VALID,0.105969,VALID,22.2719,VALID,60,VALID,0,
2011-01-08, 03:30:04,VALID,1006.78,VALID,0,VALID,103.84,VALID,0.105969,VALID,22.2524,VALID,60,VALID,0,
2011-01-08, 03:31:04,VALID,1006.76,VALID,0,VALID,103.817,VALID,0,VALID,22.2312,VALID,60,VALID,0.133594,
2011-01-08, 03:32:04,VALID,1006.78,VALID,0,VALID,103.794,VALID,0,VALID,22.2507,VALID,60,VALID,0.435156,
2011-01-08, 03:33:04,VALID,1006.74,VALID,0,VALID,103.779,VALID,0,VALID,22.2524,VALID,60,VALID,0.204688,
2011-01-08, 03:34:04,VALID,1006.74,VALID,0,VALID,103.794,VALID,0,VALID,22.2524,VALID,71,VALID,0.648828,
2011-01-08, 03:35:04,VALID,1006.76,VALID,0,VALID,103.794,VALID,0,VALID,22.2524,VALID,72,VALID,0.0996094,
2011-01-08, 03:36:04,VALID,1006.75,VALID,0,VALID,103.794,VALID,0,VALID,22.2118,VALID,72,VALID,0.446875,
2011-01-08, 03:37:04,VALID,1006.77,VALID,0,VALID,103.802,VALID,0,VALID,22.2118,VALID,72,VALID,0.184375,
2011-01-08, 03:38:04,VALID,1006.76,VALID,0,VALID,103.764,VALID,0,VALID,22.2329,VALID,72,VALID,0.289063,
2011-01-08, 03:39:04,VALID,1006.76,VALID,0,VALID,103.756,VALID,0,VALID,22.2312,VALID,73,VALID,0.521094,
2011-01-08, 03:40:04,VALID,1006.78,VALID,0,VALID,103.779,VALID,0,VALID,22.2329,VALID,73,VALID,0.139453,
2011-01-08, 03:41:04,VALID,1006.75,VALID,0,VALID,103.787,VALID,0,VALID,22.2134,VALID,73,VALID,0.330859,
2011-01-08, 03:42:04,VALID,1006.73,VALID,0,VALID,103.764,VALID,0,VALID,22.2541,VALID,73,VALID,0.553906,
2011-01-08, 03:43:04,VALID,1006.73,VALID,0,VALID,103.756,VALID,0,VALID,22.2134,VALID,73,VALID,0,
2011-01-08, 03:44:04,VALID,1006.69,VALID,0,VALID,103.771,VALID,0,VALID,22.194,VALID,73,VALID,0.2375,
2011-01-08, 03:45:04,VALID,1006.69,VALID,0,VALID,103.748,VALID,0,VALID,22.2151,VALID,73,VALID,0,
2011-01-08, 03:46:04,VALID,1006.65,VALID,0,VALID,103.756,VALID,0,VALID,22.194,VALID,73,VALID,0.235938,
2011-01-08, 03:47:04,VALID,1006.64,VALID,0,VALID,103.779,VALID,0,VALID,22.1745,VALID,73,VALID,0.101172,
2011-01-08, 03:48:04,VALID,1006.65,VALID,0,VALID,103.779,VALID,0,VALID,22.1957,VALID,73,VALID,0,
2011-01-08, 03:49:04,VALID,1006.64,VALID,0,VALID,103.802,VALID,0,VALID,22.1567,VALID,73,VALID,0.00429688,
2011-01-08, 03:50:04,VALID,1006.61,VALID,0,VALID,103.771,VALID,0,VALID,22.1762,VALID,73,VALID,0.111328,
2011-01-08, 03:51:04,VALID,1006.6,VALID,0,VALID,103.771,VALID,0,VALID,22.1762,VALID,73,VALID,0.178906,
2011-01-08, 03:52:04,VALID,1006.58,VALID,0,VALID,103.764,VALID,0,VALID,22.1762,VALID,73,VALID,0,